Ephrata, WA

6:42 PM PST on November 21, 2017 (GMT -0800)
Ephrata Municipal

Weather History for KEPH - June, 2013

Change the Weather History Date:

Sunday, June 23, 2013

  Actual Average Record
Temperature  
Mean Temperature 67 °F 68 °F  
Max Temperature 78 °F 82 °F 104 °F (1992)
Min Temperature 55 °F 55 °F 44 °F (1953)
Degree Days  
Heating Degree Days 0 1  
Month to date heating degree days 48 52  
Since 1 June heating degree days 48 52  
Since 1 July heating degree days 5544 5961  
Cooling Degree Days 2 5  
Month to date cooling degree days 64 71  
Year to date cooling degree days 121 108  
Since 1 June cooling degree days 64 71  
Growing Degree Days 16 (Base 50)    
Moisture  
Dew Point 49 °F    
Average Humidity 62    
Maximum Humidity 90    
Minimum Humidity 33    
Precipitation  
Precipitation 0.06 in 0.01 in 0.81 in (1969)
Month to date precipitation 1.28 0.50  
Year to date precipitation 3.50 3.96  
Sea Level Pressure  
Sea Level Pressure 29.74 in    
Wind  
Wind Speed 6 mph (WNW)    
Max Wind Speed 16 mph    
Max Gust Speed 20 mph    
Visibility 10 miles    
Events Rain    
T = Trace of Precipitation, MM = Missing Value Source: NWS Daily Summary

Daily Weather History Graph

Daily Weather History Graph

Search for Another Location

Airport or City:

Trip Planner

Search our weather history database for the weather conditions in past years. The results will help you decide how hot, cold, wet, or windy it might be!

Date:

Astronomy

Jun. 23, 2013 Rise Set
Actual Time 5:02 AM PDT 8:58 PM PDT
Civil Twilight 4:21 AM PDT 9:38 PM PDT
Nautical Twilight 3:26 AM PDT 10:34 PM PDT
Astronomical Twilight 2:00 AM PDT 12:00 AM PDT
Moon 9:08 PM PDT (6/23) 5:30 AM PDT (6/23)
Length of Visible Light 17h 16m
Length of Day
15h 56m
Full, 100% of the Moon is Illuminated
Jun 23
Full
Jun 29
Last Quarter
Jul 8
New
Jul 15
First Quarter
Jul 22
Full

Hourly Weather History & Observations

Time (PDT) Temp. Dew Point Humidity Pressure Visibility Wind Dir Wind Speed Gust Speed Precip Events Conditions
12:53 AM 57.9 °F 48.0 °F 70% 29.88 in 10.0 mi North 5.8 mph - N/A   Clear
1:53 AM 57.0 °F 48.0 °F 72% 29.87 in 10.0 mi North 8.1 mph - N/A   Clear
2:53 AM 55.9 °F 50.0 °F 80% 29.86 in 10.0 mi North 6.9 mph - N/A   Clear
3:53 AM 55.0 °F 48.9 °F 80% 29.86 in 10.0 mi North 6.9 mph - N/A   Clear
4:53 AM 55.9 °F 48.9 °F 77% 29.84 in 10.0 mi North 6.9 mph - N/A   Clear
5:53 AM 57.0 °F 48.9 °F 74% 29.84 in 10.0 mi North 8.1 mph - N/A   Clear
6:53 AM 61.0 °F 48.9 °F 64% 29.83 in 10.0 mi North 8.1 mph - N/A   Clear
7:53 AM 63.0 °F 48.0 °F 58% 29.82 in 10.0 mi NNE 6.9 mph - N/A   Clear
8:53 AM 66.9 °F 48.9 °F 52% 29.81 in 10.0 mi NNE 4.6 mph - N/A   Clear
9:53 AM 70.0 °F 50.0 °F 49% 29.79 in 10.0 mi Calm Calm - N/A   Clear
10:53 AM 71.1 °F 48.0 °F 44% 29.78 in 10.0 mi Calm Calm - N/A   Clear
11:53 AM 73.9 °F 46.9 °F 38% 29.76 in 10.0 mi Variable 3.5 mph - N/A   Partly Cloudy
12:53 PM 77.0 °F 46.0 °F 33% 29.73 in 10.0 mi ENE 6.9 mph - N/A   Clear
1:53 PM 75.9 °F 45.0 °F 33% 29.71 in 10.0 mi Variable 4.6 mph - N/A   Scattered Clouds
2:53 PM 77.0 °F 48.0 °F 36% 29.70 in 10.0 mi SW 10.4 mph - N/A   Mostly Cloudy
3:53 PM 73.9 °F 48.9 °F 41% 29.68 in 10.0 mi WSW 12.7 mph - N/A   Scattered Clouds
4:53 PM 73.9 °F 48.0 °F 40% 29.66 in 10.0 mi West 6.9 mph - N/A   Scattered Clouds
5:53 PM 73.9 °F 46.9 °F 38% 29.63 in 10.0 mi SSW 4.6 mph - N/A   Overcast
6:53 PM 73.0 °F 48.0 °F 41% 29.63 in 10.0 mi SSW 4.6 mph - N/A   Mostly Cloudy
7:53 PM 72.0 °F 48.0 °F 43% 29.62 in 10.0 mi SW 6.9 mph - N/A   Overcast
8:53 PM 66.9 °F 54.0 °F 63% 29.61 in 10.0 mi SSW 4.6 mph - 0.00 in Rain Light Rain
9:53 PM 66.0 °F 53.1 °F 63% 29.63 in 10.0 mi SW 9.2 mph - 0.00 in Rain Light Rain
10:53 PM 61.0 °F 55.9 °F 83% 29.63 in 9.0 mi WSW 6.9 mph - 0.03 in Rain Light Rain
11:53 PM 60.1 °F 57.0 °F 90% 29.62 in 10.0 mi SW 3.5 mph - 0.03 in Rain Light Rain